{"data":{"norad_id":57172,"epoch":"2026-05-25T04:40:20.587008Z","epoch_age_seconds":65118,"freshness":"FRESH","line1":"1 57172U 23091G   26145.19468272  .00005705  00000+0  26366-3 0  9996","line2":"2 57172  97.5065 203.9837 0012588 192.5498 167.5426 15.20507840160516","mean_motion":15.2050784,"eccentricity":0.0012588,"inclination_deg":97.5065,"raan_deg":203.9837,"arg_perigee_deg":192.5498,"mean_anomaly_deg":167.5426,"bstar":0.00026366,"rev_number":16051,"period_min":94.705200599295,"perigee_km":495.64410366781,"apogee_km":512.97134650769,"semimajor_km":6882.4447250878,"source":"CELESTRAK","updated_at":"2026-05-25T13:38:23.290923Z"}}